Weather History for Manchester, NH

Change the Weather History Date:

Sunday, January 20, 2013

  Actual Average Record
Temperature  
Mean Temperature 37 °F -  
Max Temperature 48 °F 31 °F 58 °F (1973)
Min Temperature 26 °F 6 °F -20 °F (1971)
Degree Days  
Heating Degree Days 28    
Moisture  
Dew Point 19 °F    
Average Humidity 49    
Maximum Humidity 70    
Minimum Humidity 25    
Precipitation  
Precipitation 0.00 in - - ()
Snow  
Snow 0.00 in - - ()
Snow Depth 2.00 in    
Sea Level Pressure  
Sea Level Pressure 29.73 in    
Wind  
Wind Speed 10 mph (SW)    
Max Wind Speed 21 mph    
Max Gust Speed 37 mph    
Visibility 10 miles    
Events      
Averages and records for this station are not official NWS values.
T = Trace of Precipitation, MM = Missing Value Source: NWS Daily Summary

Daily Weather History Graph

Daily Weather History Graph

Search for Another Location

Airport:

Trip Planner

Search our weather history database for the weather conditions in past years. The results will help you decide how hot, cold, wet, or windy it might be!

Date:

Astronomy

Jan. 20, 2013 Rise Set
Actual Time 7:10 AM EST 4:43 PM EST
Civil Twilight 6:39 AM EST 5:14 PM EST
Nautical Twilight 6:05 AM EST 5:48 PM EST
Astronomical Twilight 5:31 AM EST 6:22 PM EST
Moon 11:43 AM EST (1/20) 1:39 AM EST (1/20)
Length of Visible Light 10h 34m
Length of Day
9h 32m
Waxing Gibbous, 66% of the Moon is Illuminated
Jan 20
Waxing Gibbous
Jan 26
Full
Feb 3
Last Quarter
Feb 10
New
Feb 17
First Quarter

Hourly Weather History & Observations

Time (EST) Temp. Windchill Dew Point Humidity Pressure Visibility Wind Dir Wind Speed Gust Speed Precip Events Conditions
12:53 AM 37.0 °F 31.6 °F 27.0 °F 67% 29.85 in 10.0 mi South 6.9 mph - N/A   Overcast
1:53 AM 37.0 °F - 28.0 °F 70% 29.84 in 10.0 mi Calm Calm - N/A   Overcast
2:53 AM 39.0 °F 32.3 °F 28.0 °F 65% 29.79 in 10.0 mi South 10.4 mph - N/A   Overcast
3:53 AM 37.9 °F 31.5 °F 28.0 °F 68% 29.76 in 10.0 mi South 9.2 mph - N/A   Partly Cloudy
4:53 AM 37.0 °F 31.0 °F 27.0 °F 67% 29.73 in 10.0 mi South 8.1 mph - N/A   Clear
5:53 AM 37.0 °F 30.4 °F 27.0 °F 67% 29.68 in 10.0 mi South 9.2 mph - N/A   Clear
6:53 AM 37.4 °F 30.8 °F 26.6 °F 65% 29.59 in 10.0 mi South 9.2 mph - N/A   Clear
7:53 AM 37.9 °F 30.5 °F 27.0 °F 65% 29.61 in 10.0 mi South 11.5 mph - N/A   Clear
8:53 AM 41.0 °F 33.5 °F 27.0 °F 57% 29.60 in 10.0 mi South 13.8 mph - N/A   Clear
9:53 AM 46.9 °F - 25.0 °F 42% 29.59 in 10.0 mi SW 12.7 mph 27.6 mph N/A   Clear
10:53 AM 48.0 °F - 25.0 °F 41% 29.55 in 10.0 mi SW 15.0 mph 25.3 mph N/A   Clear
11:53 AM 48.0 °F - 25.0 °F 41% 29.54 in 10.0 mi SW 20.7 mph 34.5 mph N/A   Mostly Cloudy
12:53 PM 45.0 °F 37.1 °F 27.0 °F 49% 29.59 in 10.0 mi WSW 19.6 mph 28.8 mph N/A   Mostly Cloudy
1:53 PM 43.0 °F 36.8 °F 19.9 °F 40% 29.62 in 10.0 mi WSW 11.5 mph 21.9 mph N/A   Mostly Cloudy
2:53 PM 45.0 °F 37.9 °F 15.1 °F 30% 29.64 in 10.0 mi West 16.1 mph 29.9 mph N/A   Clear
3:53 PM 42.1 °F 33.1 °F 8.1 °F 25% 29.69 in 10.0 mi West 20.7 mph 32.2 mph N/A   Clear
4:53 PM 37.9 °F 30.5 °F 12.0 °F 35% 29.75 in 10.0 mi West 11.5 mph 31.1 mph N/A   Clear
5:53 PM 35.1 °F 23.8 °F 10.9 °F 37% 29.80 in 10.0 mi WNW 20.7 mph 36.8 mph N/A   Clear
6:53 PM 33.1 °F 24.4 °F 10.0 °F 38% 29.84 in 10.0 mi West 11.5 mph 25.3 mph N/A   Clear
7:53 PM 30.9 °F 21.7 °F 8.1 °F 38% 29.86 in 10.0 mi West 11.5 mph 20.7 mph N/A   Clear
8:53 PM 30.0 °F 22.4 °F 8.1 °F 40% 29.88 in 10.0 mi West 8.1 mph 16.1 mph N/A   Clear
9:53 PM 28.4 °F 15.4 °F 5.0 °F 37% 29.92 in 10.0 mi NW 19.6 mph 29.9 mph N/A   Scattered Clouds
10:53 PM 26.6 °F 18.2 °F 6.1 °F 42% 29.94 in 10.0 mi WNW 8.1 mph - N/A   Overcast
11:53 PM 26.6 °F 17.5 °F 5.0 °F 40% 29.95 in 10.0 mi West 9.2 mph 17.3 mph N/A   Partly Cloudy